M I D A S
Marine Information and Data Acquisition System
Tripno 1338 of the Zeeleeuw from 2007-07-05 06:31:09 to 2007-07-05 15:53:31
Back to CruiseResearch ActivitiesStationsMapUnderway DataData graphs

EquipmentUnitsComment
TimeDGPSUTC
LatitudeDGPSDM.mWGS84
LongitudeDGPSDM.mWGS84
TemperatureSBE03/SBE38deg celciusITS90
ConductivitySBE21S/mITS90
SalinitySBE21 Practical Salinity Units
ChlorophylAChelsea fluorimeterg/lCalibrated in Aceton
Missing or incorrect values are displayed as -999
Sea surface data collected by the RV Zeeleeuw from 2007-07-05 06:31:52 to 2007-07-05 16:04:38
                                                                                    Next 1000 lines
Time Latitude Longitude Temperature Conductivity Salinity ChlorophylA
2007-07-05 06:32:02 51°13.598 2°56.092 -999 -999 -999 -999
2007-07-05 06:32:07 51°13.598 2°56.09 -999 -999 -999 -999
2007-07-05 06:32:12 51°13.599 2°56.087 -999 -999 -999 -999
2007-07-05 06:32:17 51°13.6 2°56.083 -999 -999 -999 -999
2007-07-05 06:32:22 51°13.602 2°56.079 -999 -999 -999 -999
2007-07-05 06:32:27 51°13.603 2°56.073 -999 -999 -999 -999
2007-07-05 06:32:32 51°13.605 2°56.068 -999 -999 -999 -999
2007-07-05 06:32:37 51°13.606 2°56.061 -999 -999 -999 -999
2007-07-05 06:32:42 51°13.608 2°56.055 -999 -999 -999 -999
2007-07-05 06:32:47 51°13.611 2°56.048 -999 -999 -999 -999
2007-07-05 06:32:52 51°13.613 2°56.04 -999 -999 -999 -999
2007-07-05 06:32:57 51°13.615 2°56.033 -999 -999 -999 -999
2007-07-05 06:33:02 51°13.618 2°56.025 -999 -999 -999 -999
2007-07-05 06:33:07 51°13.62 2°56.017 -999 -999 -999 -999
2007-07-05 06:33:13 51°13.624 2°56.007 -999 -999 -999 -999
2007-07-05 06:33:17 51°13.626 2°56 -999 -999 -999 -999
2007-07-05 06:33:22 51°13.63 2°55.992 -999 -999 -999 -999
2007-07-05 06:33:27 51°13.633 2°55.984 -999 -999 -999 -999
2007-07-05 06:33:32 51°13.636 2°55.976 -999 -999 -999 -999
2007-07-05 06:33:38 51°13.641 2°55.965 -999 -999 -999 -999
2007-07-05 06:33:42 51°13.643 2°55.959 -999 -999 -999 -999
2007-07-05 06:33:47 51°13.647 2°55.951 -999 -999 -999 -999
2007-07-05 06:33:52 51°13.651 2°55.942 -999 -999 -999 -999
2007-07-05 06:33:57 51°13.655 2°55.934 -999 -999 -999 -999
2007-07-05 06:34:02 51°13.658 2°55.926 -999 -999 -999 -999
2007-07-05 06:34:07 51°13.662 2°55.918 -999 -999 -999 -999
2007-07-05 06:34:12 51°13.666 2°55.909 -999 -999 -999 -999
2007-07-05 06:34:17 51°13.669 2°55.901 -999 -999 -999 -999
2007-07-05 06:34:23 51°13.673 2°55.891 -999 -999 -999 -999
2007-07-05 06:34:27 51°13.676 2°55.884 -999 -999 -999 -999
2007-07-05 06:34:32 51°13.679 2°55.876 -999 -999 -999 -999
2007-07-05 06:34:37 51°13.682 2°55.867 -999 -999 -999 -999
2007-07-05 06:34:42 51°13.685 2°55.859 -999 -999 -999 -999
2007-07-05 06:34:47 51°13.687 2°55.851 -999 -999 -999 -999
2007-07-05 06:34:52 51°13.69 2°55.843 -999 -999 -999 -999
2007-07-05 06:34:57 51°13.692 2°55.835 -999 -999 -999 -999
2007-07-05 06:35:02 51°13.694 2°55.827 -999 -999 -999 -999
2007-07-05 06:35:07 51°13.696 2°55.819 -999 -999 -999 -999
2007-07-05 06:35:13 51°13.698 2°55.81 -999 -999 -999 -999
2007-07-05 06:35:17 51°13.699 2°55.804 -999 -999 -999 -999
2007-07-05 06:35:22 51°13.7 2°55.796 -999 -999 -999 -999
2007-07-05 06:35:27 51°13.701 2°55.788 -999 -999 -999 -999
2007-07-05 06:35:32 51°13.702 2°55.78 -999 -999 -999 -999
2007-07-05 06:35:37 51°13.703 2°55.773 -999 -999 -999 -999
2007-07-05 06:35:42 51°13.703 2°55.767 -999 -999 -999 -999
2007-07-05 06:35:47 51°13.704 2°55.761 -999 -999 -999 -999
2007-07-05 06:35:52 51°13.704 2°55.757 -999 -999 -999 -999
2007-07-05 06:35:58 51°13.704 2°55.756 -999 -999 -999 -999
2007-07-05 06:36:02 51°13.704 2°55.756 -999 -999 -999 -999
2007-07-05 06:36:07 51°13.705 2°55.758 -999 -999 -999 -999
2007-07-05 06:36:12 51°13.706 2°55.761 -999 -999 -999 -999
2007-07-05 06:36:17 51°13.707 2°55.764 -999 -999 -999 -999
2007-07-05 06:36:22 51°13.709 2°55.767 -999 -999 -999 -999
2007-07-05 06:36:27 51°13.71 2°55.77 -999 -999 -999 -999
2007-07-05 06:36:32 51°13.711 2°55.771 -999 -999 -999 -999
2007-07-05 06:36:37 51°13.711 2°55.772 -999 -999 -999 -999
2007-07-05 06:36:43 51°13.711 2°55.772 -999 -999 -999 -999
2007-07-05 06:36:47 51°13.71 2°55.771 -999 -999 -999 -999
2007-07-05 06:36:52 51°13.708 2°55.77 -999 -999 -999 -999
2007-07-05 06:36:57 51°13.706 2°55.768 -999 -999 -999 -999
2007-07-05 06:37:02 51°13.704 2°55.766 -999 -999 -999 -999
2007-07-05 06:37:07 51°13.703 2°55.764 -999 -999 -999 -999
2007-07-05 06:37:12 51°13.701 2°55.762 -999 -999 -999 -999
2007-07-05 06:37:17 51°13.699 2°55.76 -999 -999 -999 -999
2007-07-05 06:37:22 51°13.697 2°55.759 -999 -999 -999 -999
2007-07-05 06:37:27 51°13.696 2°55.758 -999 -999 -999 -999
2007-07-05 06:37:33 51°13.695 2°55.757 -999 -999 -999 -999
2007-07-05 06:37:37 51°13.695 2°55.757 -999 -999 -999 -999
2007-07-05 06:37:42 51°13.695 2°55.759 -999 -999 -999 -999
2007-07-05 06:37:47 51°13.697 2°55.76 -999 -999 -999 -999
2007-07-05 06:37:52 51°13.7 2°55.762 -999 -999 -999 -999
2007-07-05 06:37:57 51°13.704 2°55.764 -999 -999 -999 -999
2007-07-05 06:38:02 51°13.708 2°55.764 -999 -999 -999 -999
2007-07-05 06:38:07 51°13.713 2°55.764 -999 -999 -999 -999
2007-07-05 06:38:12 51°13.718 2°55.762 -999 -999 -999 -999
2007-07-05 06:38:17 51°13.724 2°55.759 -999 -999 -999 -999
2007-07-05 06:38:22 51°13.73 2°55.754 -999 -999 -999 -999
2007-07-05 06:38:27 51°13.735 2°55.748 -999 -999 -999 -999
2007-07-05 06:38:32 51°13.741 2°55.742 -999 -999 -999 -999
2007-07-05 06:38:37 51°13.746 2°55.735 -999 -999 -999 -999
2007-07-05 06:38:42 51°13.752 2°55.728 -999 -999 -999 -999
2007-07-05 06:38:47 51°13.759 2°55.72 -999 -999 -999 -999
2007-07-05 06:38:52 51°13.766 2°55.711 -999 -999 -999 -999
2007-07-05 06:38:57 51°13.773 2°55.702 -999 -999 -999 -999
2007-07-05 06:39:02 51°13.78 2°55.692 -999 -999 -999 -999
2007-07-05 06:39:07 51°13.788 2°55.681 -999 -999 -999 -999
2007-07-05 06:39:12 51°13.797 2°55.671 -999 -999 -999 -999
2007-07-05 06:39:17 51°13.806 2°55.66 -999 -999 -999 -999
2007-07-05 06:39:22 51°13.816 2°55.649 -999 -999 -999 -999
2007-07-05 06:39:27 51°13.826 2°55.64 -999 -999 -999 -999
2007-07-05 06:39:32 51°13.836 2°55.63 -999 -999 -999 -999
2007-07-05 06:39:37 51°13.848 2°55.621 -999 -999 -999 -999
2007-07-05 06:39:42 51°13.859 2°55.613 -999 -999 -999 -999
2007-07-05 06:39:47 51°13.87 2°55.604 -999 -999 -999 -999
2007-07-05 06:39:52 51°13.882 2°55.596 -999 -999 -999 -999
2007-07-05 06:39:57 51°13.894 2°55.587 -999 -999 -999 -999
2007-07-05 06:40:02 51°13.906 2°55.579 -999 -999 -999 -999
2007-07-05 06:40:07 51°13.918 2°55.571 -999 -999 -999 -999
2007-07-05 06:40:12 51°13.931 2°55.562 -999 -999 -999 -999
2007-07-05 06:40:17 51°13.943 2°55.554 -999 -999 -999 -999
2007-07-05 06:40:22 51°13.956 2°55.545 -999 -999 -999 -999
2007-07-05 06:40:27 51°13.968 2°55.537 -999 -999 -999 -999
2007-07-05 06:40:32 51°13.981 2°55.529 -999 -999 -999 -999
2007-07-05 06:40:37 51°13.994 2°55.521 -999 -999 -999 -999
2007-07-05 06:40:42 51°14.007 2°55.512 -999 -999 -999 -999
2007-07-05 06:40:47 51°14.02 2°55.503 -999 -999 -999 -999
2007-07-05 06:40:52 51°14.032 2°55.494 -999 -999 -999 -999
2007-07-05 06:40:57 51°14.045 2°55.484 -999 -999 -999 -999
2007-07-05 06:41:02 51°14.058 2°55.476 -999 -999 -999 -999
2007-07-05 06:41:07 51°14.071 2°55.466 -999 -999 -999 -999
2007-07-05 06:41:12 51°14.083 2°55.456 -999 -999 -999 -999
2007-07-05 06:41:17 51°14.096 2°55.446 -999 -999 -999 -999
2007-07-05 06:41:23 51°14.11 2°55.434 -999 -999 -999 -999
2007-07-05 06:41:27 51°14.12 2°55.425 -999 -999 -999 -999
2007-07-05 06:41:32 51°14.132 2°55.414 -999 -999 -999 -999
2007-07-05 06:41:37 51°14.144 2°55.403 -999 -999 -999 -999
2007-07-05 06:41:42 51°14.156 2°55.392 -999 -999 -999 -999
2007-07-05 06:41:47 51°14.168 2°55.381 -999 -999 -999 -999
2007-07-05 06:41:52 51°14.18 2°55.369 -999 -999 -999 -999
2007-07-05 06:41:57 51°14.191 2°55.356 -999 -999 -999 -999
2007-07-05 06:42:02 51°14.202 2°55.343 -999 -999 -999 -999
2007-07-05 06:42:07 51°14.213 2°55.331 -999 -999 -999 -999
2007-07-05 06:42:12 51°14.224 2°55.317 -999 -999 -999 -999
2007-07-05 06:42:17 51°14.235 2°55.304 -999 -999 -999 -999
2007-07-05 06:42:22 51°14.245 2°55.289 -999 -999 -999 -999
2007-07-05 06:42:27 51°14.255 2°55.275 -999 -999 -999 -999
2007-07-05 06:42:32 51°14.265 2°55.259 -999 -999 -999 -999
2007-07-05 06:42:37 51°14.275 2°55.243 -999 -999 -999 -999
2007-07-05 06:42:42 51°14.285 2°55.227 -999 -999 -999 -999
2007-07-05 06:42:47 51°14.295 2°55.21 -999 -999 -999 -999
2007-07-05 06:42:52 51°14.304 2°55.192 -999 -999 -999 -999
2007-07-05 06:42:57 51°14.314 2°55.174 -999 -999 -999 -999
2007-07-05 06:43:02 51°14.324 2°55.156 -999 -999 -999 -999
2007-07-05 06:43:07 51°14.334 2°55.137 -999 -999 -999 -999
2007-07-05 06:43:12 51°14.344 2°55.119 -999 -999 -999 -999
2007-07-05 06:43:17 51°14.353 2°55.101 -999 -999 -999 -999
2007-07-05 06:43:23 51°14.365 2°55.079 -999 -999 -999 -999
2007-07-05 06:43:27 51°14.373 2°55.065 -999 -999 -999 -999
2007-07-05 06:43:32 51°14.383 2°55.046 -999 -999 -999 -999
2007-07-05 06:43:37 51°14.393 2°55.028 -999 -999 -999 -999
2007-07-05 06:43:42 51°14.404 2°55.009 -999 -999 -999 -999
2007-07-05 06:43:47 51°14.415 2°54.991 -999 -999 -999 -999
2007-07-05 06:43:52 51°14.427 2°54.975 -999 -999 -999 -999
2007-07-05 06:43:57 51°14.439 2°54.96 -999 -999 -999 -999
2007-07-05 06:44:02 51°14.452 2°54.945 -999 -999 -999 -999
2007-07-05 06:44:07 51°14.465 2°54.929 -999 -999 -999 -999
2007-07-05 06:44:12 51°14.478 2°54.914 -999 -999 -999 -999
2007-07-05 06:44:17 51°14.491 2°54.898 -999 -999 -999 -999
2007-07-05 06:44:22 51°14.505 2°54.882 -999 -999 -999 -999
2007-07-05 06:44:27 51°14.519 2°54.866 -999 -999 -999 -999
2007-07-05 06:44:32 51°14.532 2°54.851 -999 -999 -999 -999
2007-07-05 06:44:37 51°14.546 2°54.835 -999 -999 -999 -999
2007-07-05 06:44:42 51°14.56 2°54.819 -999 -999 -999 -999
2007-07-05 06:44:47 51°14.574 2°54.804 -999 -999 -999 -999
2007-07-05 06:44:52 51°14.588 2°54.788 -999 -999 -999 -999
2007-07-05 06:44:57 51°14.601 2°54.772 -999 -999 -999 -999
2007-07-05 06:45:02 51°14.614 2°54.758 -999 -999 -999 -999
2007-07-05 06:45:07 51°14.627 2°54.743 -999 -999 -999 -999
2007-07-05 06:45:12 51°14.64 2°54.728 -999 -999 -999 -999
2007-07-05 06:45:17 51°14.654 2°54.714 -999 -999 -999 -999
2007-07-05 06:45:22 51°14.667 2°54.7 -999 -999 -999 -999
2007-07-05 06:45:27 51°14.681 2°54.686 -999 -999 -999 -999
2007-07-05 06:45:32 51°14.694 2°54.671 -999 -999 -999 -999
2007-07-05 06:45:37 51°14.708 2°54.657 -999 -999 -999 -999
2007-07-05 06:45:43 51°14.724 2°54.64 -999 -999 -999 -999
2007-07-05 06:45:47 51°14.736 2°54.628 -999 -999 -999 -999
2007-07-05 06:45:52 51°14.75 2°54.613 -999 -999 -999 -999
2007-07-05 06:45:57 51°14.764 2°54.6 -999 -999 -999 -999
2007-07-05 06:46:03 51°14.78 2°54.583 -999 -999 -999 -999
2007-07-05 06:46:07 51°14.791 2°54.571 -999 -999 -999 -999
2007-07-05 06:46:12 51°14.805 2°54.557 -999 -999 -999 -999
2007-07-05 06:46:17 51°14.819 2°54.543 -999 -999 -999 -999
2007-07-05 06:46:22 51°14.832 2°54.528 -999 -999 -999 -999
2007-07-05 06:46:27 51°14.845 2°54.514 -999 -999 -999 -999
2007-07-05 06:46:32 51°14.859 2°54.501 -999 -999 -999 -999
2007-07-05 06:46:37 51°14.872 2°54.486 -999 -999 -999 -999
2007-07-05 06:46:42 51°14.886 2°54.472 -999 -999 -999 -999
2007-07-05 06:46:47 51°14.9 2°54.458 -999 -999 -999 -999
2007-07-05 06:46:52 51°14.914 2°54.444 -999 -999 -999 -999
2007-07-05 06:46:57 51°14.927 2°54.429 -999 -999 -999 -999
2007-07-05 06:47:02 51°14.941 2°54.414 -999 -999 -999 -999
2007-07-05 06:47:07 51°14.955 2°54.399 -999 -999 -999 -999
2007-07-05 06:47:12 51°14.969 2°54.384 -999 -999 -999 -999
2007-07-05 06:47:17 51°14.983 2°54.37 -999 -999 -999 -999
2007-07-05 06:47:23 51°15 2°54.352 -999 -999 -999 -999
2007-07-05 06:47:27 51°15.011 2°54.341 -999 -999 -999 -999
2007-07-05 06:47:32 51°15.025 2°54.327 -999 -999 -999 -999
2007-07-05 06:47:37 51°15.039 2°54.314 -999 -999 -999 -999
2007-07-05 06:47:43 51°15.055 2°54.296 -999 -999 -999 -999
2007-07-05 06:47:47 51°15.066 2°54.285 -999 -999 -999 -999
2007-07-05 06:47:52 51°15.079 2°54.272 -999 -999 -999 -999
2007-07-05 06:47:57 51°15.093 2°54.259 -999 -999 -999 -999
2007-07-05 06:48:03 51°15.109 2°54.242 -999 -999 -999 -999
2007-07-05 06:48:07 51°15.12 2°54.232 -999 -999 -999 -999
2007-07-05 06:48:12 51°15.132 2°54.219 -999 -999 -999 -999
2007-07-05 06:48:17 51°15.146 2°54.205 -999 -999 -999 -999
2007-07-05 06:48:22 51°15.159 2°54.191 -999 -999 -999 -999
2007-07-05 06:48:27 51°15.173 2°54.177 -999 -999 -999 -999
2007-07-05 06:48:32 51°15.186 2°54.163 -999 -999 -999 -999
2007-07-05 06:48:37 51°15.2 2°54.15 -999 -999 -999 -999
2007-07-05 06:48:42 51°15.213 2°54.135 -999 -999 -999 -999
2007-07-05 06:48:47 51°15.226 2°54.121 -999 -999 -999 -999
2007-07-05 06:48:52 51°15.24 2°54.106 -999 -999 -999 -999
2007-07-05 06:48:57 51°15.254 2°54.091 -999 -999 -999 -999
2007-07-05 06:49:02 51°15.267 2°54.075 -999 -999 -999 -999
2007-07-05 06:49:07 51°15.281 2°54.061 -999 -999 -999 -999
2007-07-05 06:49:12 51°15.295 2°54.046 -999 -999 -999 -999
2007-07-05 06:49:17 51°15.308 2°54.032 -999 -999 -999 -999
2007-07-05 06:49:22 51°15.321 2°54.015 -999 -999 -999 -999
2007-07-05 06:49:27 51°15.335 2°54.001 -999 -999 -999 -999
2007-07-05 06:49:32 51°15.349 2°53.986 -999 -999 -999 -999
2007-07-05 06:49:37 51°15.362 2°53.97 -999 -999 -999 -999
2007-07-05 06:49:42 51°15.376 2°53.954 -999 -999 -999 -999
2007-07-05 06:49:47 51°15.39 2°53.939 -999 -999 -999 -999
2007-07-05 06:49:52 51°15.404 2°53.925 -999 -999 -999 -999
2007-07-05 06:49:57 51°15.418 2°53.909 -999 -999 -999 -999
2007-07-05 06:50:03 51°15.434 2°53.892 -999 -999 -999 -999
2007-07-05 06:50:07 51°15.445 2°53.882 -999 -999 -999 -999
2007-07-05 06:50:12 51°15.459 2°53.867 -999 -999 -999 -999
2007-07-05 06:50:17 51°15.472 2°53.853 -999 -999 -999 -999
2007-07-05 06:50:22 51°15.486 2°53.838 -999 -999 -999 -999
2007-07-05 06:50:27 51°15.5 2°53.823 -999 -999 -999 -999
2007-07-05 06:50:32 51°15.513 2°53.809 -999 -999 -999 -999
2007-07-05 06:50:37 51°15.527 2°53.795 -999 -999 -999 -999
2007-07-05 06:50:42 51°15.541 2°53.78 -999 -999 -999 -999
2007-07-05 06:50:47 51°15.554 2°53.766 -999 -999 -999 -999
2007-07-05 06:50:52 51°15.568 2°53.752 -999 -999 -999 -999
2007-07-05 06:50:57 51°15.582 2°53.738 -999 -999 -999 -999
2007-07-05 06:51:02 51°15.595 2°53.725 -999 -999 -999 -999
2007-07-05 06:51:07 51°15.608 2°53.71 -999 -999 -999 -999
2007-07-05 06:51:12 51°15.622 2°53.696 -999 -999 -999 -999
2007-07-05 06:51:17 51°15.635 2°53.683 -999 -999 -999 -999
2007-07-05 06:51:22 51°15.648 2°53.671 -999 -999 -999 -999
2007-07-05 06:51:27 51°15.661 2°53.659 -999 -999 -999 -999
2007-07-05 06:51:33 51°15.675 2°53.644 -999 -999 -999 -999
2007-07-05 06:51:37 51°15.685 2°53.634 -999 -999 -999 -999
2007-07-05 06:51:42 51°15.698 2°53.619 -999 -999 -999 -999
2007-07-05 06:51:47 51°15.711 2°53.606 -999 -999 -999 -999
2007-07-05 06:51:52 51°15.723 2°53.592 -999 -999 -999 -999
2007-07-05 06:51:57 51°15.737 2°53.577 -999 -999 -999 -999
2007-07-05 06:52:02 51°15.75 2°53.564 -999 -999 -999 -999
2007-07-05 06:52:07 51°15.763 2°53.55 -999 -999 -999 -999
2007-07-05 06:52:12 51°15.776 2°53.536 -999 -999 -999 -999
2007-07-05 06:52:17 51°15.789 2°53.523 -999 -999 -999 -999
2007-07-05 06:52:23 51°15.805 2°53.506 -999 -999 -999 -999
2007-07-05 06:52:27 51°15.816 2°53.495 -999 -999 -999 -999
2007-07-05 06:52:32 51°15.829 2°53.481 -999 -999 -999 -999
2007-07-05 06:52:37 51°15.843 2°53.466 -999 -999 -999 -999
2007-07-05 06:52:43 51°15.859 2°53.447 -999 -999 -999 -999
2007-07-05 06:52:47 51°15.87 2°53.434 -999 -999 -999 -999
2007-07-05 06:52:52 51°15.884 2°53.419 -999 -999 -999 -999
2007-07-05 06:52:57 51°15.897 2°53.404 -999 -999 -999 -999
2007-07-05 06:53:02 51°15.912 2°53.388 -999 -999 -999 -999
2007-07-05 06:53:07 51°15.925 2°53.374 -999 -999 -999 -999
2007-07-05 06:53:12 51°15.939 2°53.359 -999 -999 -999 -999
2007-07-05 06:53:17 51°15.953 2°53.344 -999 -999 -999 -999
2007-07-05 06:53:22 51°15.966 2°53.329 -999 -999 -999 -999
2007-07-05 06:53:27 51°15.98 2°53.314 -999 -999 -999 -999
2007-07-05 06:53:32 51°15.994 2°53.298 -999 -999 -999 -999
2007-07-05 06:53:37 51°16.007 2°53.283 -999 -999 -999 -999
2007-07-05 06:53:42 51°16.021 2°53.267 -999 -999 -999 -999
2007-07-05 06:53:47 51°16.035 2°53.252 -999 -999 -999 -999
2007-07-05 06:53:52 51°16.05 2°53.236 -999 -999 -999 -999
2007-07-05 06:53:57 51°16.064 2°53.22 -999 -999 -999 -999
2007-07-05 06:54:02 51°16.077 2°53.204 -999 -999 -999 -999
2007-07-05 06:54:07 51°16.092 2°53.188 -999 -999 -999 -999
2007-07-05 06:54:12 51°16.106 2°53.172 -999 -999 -999 -999
2007-07-05 06:54:17 51°16.12 2°53.157 -999 -999 -999 -999
2007-07-05 06:54:22 51°16.134 2°53.142 -999 -999 -999 -999
2007-07-05 06:54:27 51°16.149 2°53.129 -999 -999 -999 -999
2007-07-05 06:54:32 51°16.164 2°53.115 -999 -999 -999 -999
2007-07-05 06:54:37 51°16.178 2°53.102 -999 -999 -999 -999
2007-07-05 06:54:43 51°16.197 2°53.087 -999 -999 -999 -999
2007-07-05 06:54:47 51°16.209 2°53.077 -999 -999 -999 -999
2007-07-05 06:54:52 51°16.224 2°53.065 -999 -999 -999 -999
2007-07-05 06:54:57 51°16.24 2°53.053 -999 -999 -999 -999
2007-07-05 06:55:02 51°16.255 2°53.042 -999 -999 -999 -999
2007-07-05 06:55:07 51°16.27 2°53.032 -999 -999 -999 -999
2007-07-05 06:55:12 51°16.285 2°53.021 -999 -999 -999 -999
2007-07-05 06:55:17 51°16.3 2°53.01 -999 -999 -999 -999
2007-07-05 06:55:22 51°16.315 2°52.998 -999 -999 -999 -999
2007-07-05 06:55:27 51°16.33 2°52.986 -999 -999 -999 -999
2007-07-05 06:55:32 51°16.346 2°52.974 -999 -999 -999 -999
2007-07-05 06:55:37 51°16.361 2°52.963 -999 -999 -999 -999
2007-07-05 06:55:42 51°16.376 2°52.952 -999 -999 -999 -999
2007-07-05 06:55:47 51°16.39 2°52.942 -999 -999 -999 -999
2007-07-05 06:55:53 51°16.407 2°52.931 -999 -999 -999 -999
2007-07-05 06:55:57 51°16.419 2°52.924 -999 -999 -999 -999
2007-07-05 06:56:02 51°16.432 2°52.913 -999 -999 -999 -999
2007-07-05 06:56:07 51°16.446 2°52.902 -999 -999 -999 -999
2007-07-05 06:56:12 51°16.461 2°52.89 -999 -999 -999 -999
2007-07-05 06:56:17 51°16.475 2°52.878 -999 -999 -999 -999
2007-07-05 06:56:22 51°16.49 2°52.866 -999 -999 -999 -999
2007-07-05 06:56:27 51°16.505 2°52.854 -999 -999 -999 -999
2007-07-05 06:56:32 51°16.52 2°52.843 -999 -999 -999 -999
2007-07-05 06:56:37 51°16.536 2°52.831 -999 -999 -999 -999
2007-07-05 06:56:42 51°16.551 2°52.819 -999 -999 -999 -999
2007-07-05 06:56:47 51°16.566 2°52.807 -999 -999 -999 -999
2007-07-05 06:56:52 51°16.581 2°52.794 -999 -999 -999 -999
2007-07-05 06:56:57 51°16.596 2°52.782 -999 -999 -999 -999
2007-07-05 06:57:03 51°16.615 2°52.768 -999 -999 -999 -999
2007-07-05 06:57:07 51°16.627 2°52.76 -999 -999 -999 -999
2007-07-05 06:57:12 51°16.643 2°52.748 -999 -999 -999 -999
2007-07-05 06:57:17 51°16.658 2°52.736 -999 -999 -999 -999
2007-07-05 06:57:22 51°16.674 2°52.724 -999 -999 -999 -999
2007-07-05 06:57:27 51°16.689 2°52.712 -999 -999 -999 -999
2007-07-05 06:57:32 51°16.705 2°52.7 -999 -999 -999 -999
2007-07-05 06:57:37 51°16.721 2°52.691 -999 -999 -999 -999
2007-07-05 06:57:42 51°16.737 2°52.683 -999 -999 -999 -999
2007-07-05 06:57:47 51°16.753 2°52.677 -999 -999 -999 -999
2007-07-05 06:57:52 51°16.77 2°52.673 -999 -999 -999 -999
2007-07-05 06:57:57 51°16.787 2°52.667 -999 -999 -999 -999
2007-07-05 06:58:02 51°16.803 2°52.664 -999 -999 -999 -999
2007-07-05 06:58:07 51°16.819 2°52.661 -999 -999 -999 -999
2007-07-05 06:58:12 51°16.835 2°52.658 -999 -999 -999 -999
2007-07-05 06:58:17 51°16.852 2°52.653 -999 -999 -999 -999
2007-07-05 06:58:22 51°16.868 2°52.648 -999 -999 -999 -999
2007-07-05 06:58:27 51°16.884 2°52.645 -999 -999 -999 -999
2007-07-05 06:58:32 51°16.9 2°52.641 -999 -999 -999 -999
2007-07-05 06:58:38 51°16.919 2°52.637 -999 -999 -999 -999
2007-07-05 06:58:42 51°16.932 2°52.635 -999 -999 -999 -999
2007-07-05 06:58:47 51°16.948 2°52.631 -999 -999 -999 -999
2007-07-05 06:58:52 51°16.965 2°52.628 -999 -999 -999 -999
2007-07-05 06:58:57 51°16.981 2°52.623 -999 -999 -999 -999
2007-07-05 06:59:03 51°17.001 2°52.619 -999 -999 -999 -999
2007-07-05 06:59:07 51°17.014 2°52.615 -999 -999 -999 -999
2007-07-05 06:59:12 51°17.031 2°52.61 -999 -999 -999 -999
2007-07-05 06:59:17 51°17.048 2°52.606 -999 -999 -999 -999
2007-07-05 06:59:23 51°17.068 2°52.6 -999 -999 -999 -999
2007-07-05 06:59:27 51°17.082 2°52.597 -999 -999 -999 -999
2007-07-05 06:59:32 51°17.099 2°52.593 -999 -999 -999 -999
2007-07-05 06:59:37 51°17.115 2°52.588 -999 -999 -999 -999
2007-07-05 06:59:42 51°17.132 2°52.584 -999 -999 -999 -999
2007-07-05 06:59:47 51°17.149 2°52.579 -999 -999 -999 -999
2007-07-05 06:59:52 51°17.166 2°52.574 -999 -999 -999 -999
2007-07-05 06:59:57 51°17.182 2°52.57 -999 -999 -999 -999
2007-07-05 07:00:02 51°17.199 2°52.567 -999 -999 -999 -999
2007-07-05 07:00:07 51°17.216 2°52.563 -999 -999 -999 -999
2007-07-05 07:00:12 51°17.232 2°52.558 -999 -999 -999 -999
2007-07-05 07:00:17 51°17.249 2°52.553 -999 -999 -999 -999
2007-07-05 07:00:22 51°17.266 2°52.548 -999 -999 -999 -999
2007-07-05 07:00:27 51°17.283 2°52.543 -999 -999 -999 -999
2007-07-05 07:00:32 51°17.3 2°52.538 -999 -999 -999 -999
2007-07-05 07:00:37 51°17.318 2°52.533 -999 -999 -999 -999
2007-07-05 07:00:42 51°17.335 2°52.529 -999 -999 -999 -999
2007-07-05 07:00:47 51°17.352 2°52.525 -999 -999 -999 -999
2007-07-05 07:00:52 51°17.37 2°52.519 -999 -999 -999 -999
2007-07-05 07:00:57 51°17.387 2°52.515 -999 -999 -999 -999
2007-07-05 07:01:02 51°17.404 2°52.51 -999 -999 -999 -999
2007-07-05 07:01:07 51°17.422 2°52.505 -999 -999 -999 -999
2007-07-05 07:01:12 51°17.439 2°52.501 -999 -999 -999 -999
2007-07-05 07:01:17 51°17.456 2°52.496 -999 -999 -999 -999
2007-07-05 07:01:22 51°17.473 2°52.492 -999 -999 -999 -999
2007-07-05 07:01:27 51°17.49 2°52.488 -999 -999 -999 -999
2007-07-05 07:01:32 51°17.507 2°52.484 -999 -999 -999 -999
2007-07-05 07:01:37 51°17.524 2°52.479 -999 -999 -999 -999
2007-07-05 07:01:43 51°17.544 2°52.473 -999 -999 -999 -999
2007-07-05 07:01:47 51°17.557 2°52.469 -999 -999 -999 -999
2007-07-05 07:01:52 51°17.574 2°52.464 -999 -999 -999 -999
2007-07-05 07:01:57 51°17.591 2°52.462 -999 -999 -999 -999
2007-07-05 07:02:02 51°17.608 2°52.458 -999 -999 -999 -999
2007-07-05 07:02:07 51°17.625 2°52.457 -999 -999 -999 -999
2007-07-05 07:02:12 51°17.642 2°52.452 -999 -999 -999 -999
2007-07-05 07:02:17 51°17.66 2°52.45 -999 -999 -999 -999
2007-07-05 07:02:22 51°17.677 2°52.446 -999 -999 -999 -999
2007-07-05 07:02:27 51°17.695 2°52.444 -999 -999 -999 -999
2007-07-05 07:02:32 51°17.712 2°52.442 -999 -999 -999 -999
2007-07-05 07:02:37 51°17.729 2°52.438 -999 -999 -999 -999
2007-07-05 07:02:42 51°17.747 2°52.438 -999 -999 -999 -999
2007-07-05 07:02:47 51°17.764 2°52.438 -999 -999 -999 -999
2007-07-05 07:02:52 51°17.782 2°52.441 -999 -999 -999 -999
2007-07-05 07:02:57 51°17.8 2°52.443 -999 -999 -999 -999
2007-07-05 07:03:03 51°17.82 2°52.447 -999 -999 -999 -999
2007-07-05 07:03:07 51°17.834 2°52.45 -999 -999 -999 -999
2007-07-05 07:03:12 51°17.852 2°52.454 -999 -999 -999 -999
2007-07-05 07:03:17 51°17.869 2°52.459 -999 -999 -999 -999
2007-07-05 07:03:22 51°17.886 2°52.464 -999 -999 -999 -999
2007-07-05 07:03:27 51°17.904 2°52.47 -999 -999 -999 -999
2007-07-05 07:03:32 51°17.921 2°52.473 -999 -999 -999 -999
2007-07-05 07:03:37 51°17.938 2°52.48 -999 -999 -999 -999
2007-07-05 07:03:43 51°17.959 2°52.489 -999 -999 -999 -999
2007-07-05 07:03:47 51°17.973 2°52.495 -999 -999 -999 -999
2007-07-05 07:03:52 51°17.989 2°52.504 -999 -999 -999 -999
2007-07-05 07:03:57 51°18.007 2°52.512 -999 -999 -999 -999
2007-07-05 07:04:03 51°18.026 2°52.525 -999 -999 -999 -999
2007-07-05 07:04:07 51°18.04 2°52.534 -999 -999 -999 -999
2007-07-05 07:04:12 51°18.055 2°52.547 -999 -999 -999 -999
2007-07-05 07:04:17 51°18.071 2°52.56 -999 -999 -999 -999
2007-07-05 07:04:22 51°18.086 2°52.575 -999 -999 -999 -999
2007-07-05 07:04:27 51°18.102 2°52.59 -999 -999 -999 -999
2007-07-05 07:04:32 51°18.117 2°52.605 -999 -999 -999 -999
2007-07-05 07:04:37 51°18.13 2°52.622 -999 -999 -999 -999
2007-07-05 07:04:42 51°18.144 2°52.642 -999 -999 -999 -999
2007-07-05 07:04:47 51°18.159 2°52.66 -999 -999 -999 -999
2007-07-05 07:04:52 51°18.17 2°52.681 -999 -999 -999 -999
2007-07-05 07:04:57 51°18.182 2°52.703 -999 -999 -999 -999
2007-07-05 07:05:02 51°18.195 2°52.722 -999 -999 -999 -999
2007-07-05 07:05:07 51°18.205 2°52.745 -999 -999 -999 -999
2007-07-05 07:05:12 51°18.214 2°52.769 -999 -999 -999 -999
2007-07-05 07:05:17 51°18.223 2°52.794 -999 -999 -999 -999
2007-07-05 07:05:23 51°18.233 2°52.822 -999 -999 -999 -999
2007-07-05 07:05:27 51°18.238 2°52.844 -999 -999 -999 -999
2007-07-05 07:05:32 51°18.246 2°52.87 -999 -999 -999 -999
2007-07-05 07:05:37 51°18.252 2°52.896 -999 -999 -999 -999
2007-07-05 07:05:42 51°18.256 2°52.925 -999 -999 -999 -999
2007-07-05 07:05:47 51°18.266 2°52.948 -999 -999 -999 -999
2007-07-05 07:05:52 51°18.267 2°52.977 -999 -999 -999 -999
2007-07-05 07:05:57 51°18.277 2°53.003 -999 -999 -999 -999
2007-07-05 07:06:03 51°18.283 2°53.034 -999 -999 -999 -999
2007-07-05 07:06:07 51°18.287 2°53.055 -999 -999 -999 -999
2007-07-05 07:06:12 51°18.295 2°53.082 -999 -999 -999 -999
2007-07-05 07:06:17 51°18.303 2°53.109 -999 -999 -999 -999
2007-07-05 07:06:23 51°18.314 2°53.136 -999 -999 -999 -999
2007-07-05 07:06:27 51°18.318 2°53.158 -999 -999 -999 -999
2007-07-05 07:06:32 51°18.328 2°53.183 -999 -999 -999 -999
2007-07-05 07:06:37 51°18.335 2°53.208 -999 -999 -999 -999
2007-07-05 07:06:42 51°18.344 2°53.233 -999 -999 -999 -999
2007-07-05 07:06:47 51°18.35 2°53.26 -999 -999 -999 -999
2007-07-05 07:06:52 51°18.36 2°53.284 -999 -999 -999 -999
2007-07-05 07:06:57 51°18.367 2°53.31 -999 -999 -999 -999
2007-07-05 07:07:02 51°18.375 2°53.336 -999 -999 -999 -999
2007-07-05 07:07:07 51°18.384 2°53.361 -999 -999 -999 -999
2007-07-05 07:07:12 51°18.393 2°53.384 -999 -999 -999 -999
2007-07-05 07:07:17 51°18.402 2°53.411 -999 -999 -999 -999
2007-07-05 07:07:22 51°18.412 2°53.434 -999 -999 -999 -999
2007-07-05 07:07:27 51°18.421 2°53.459 -999 -999 -999 -999
2007-07-05 07:07:32 51°18.429 2°53.483 -999 -999 -999 -999
2007-07-05 07:07:37 51°18.439 2°53.506 -999 -999 -999 -999
2007-07-05 07:07:42 51°18.447 2°53.53 -999 -999 -999 -999
2007-07-05 07:07:47 51°18.455 2°53.558 -999 -999 -999 -999
2007-07-05 07:07:52 51°18.465 2°53.582 -999 -999 -999 -999
2007-07-05 07:07:57 51°18.471 2°53.607 -999 -999 -999 -999
2007-07-05 07:08:02 51°18.479 2°53.632 -999 -999 -999 -999
2007-07-05 07:08:07 51°18.488 2°53.656 -999 -999 -999 -999
2007-07-05 07:08:12 51°18.495 2°53.682 -999 -999 -999 -999
2007-07-05 07:08:17 51°18.503 2°53.707 -999 -999 -999 -999
2007-07-05 07:08:23 51°18.513 2°53.738 -999 -999 -999 -999
2007-07-05 07:08:27 51°18.52 2°53.757 -999 -999 -999 -999
2007-07-05 07:08:32 51°18.526 2°53.784 -999 -999 -999 -999
2007-07-05 07:08:37 51°18.536 2°53.806 -999 -999 -999 -999
2007-07-05 07:08:42 51°18.541 2°53.835 -999 -999 -999 -999
2007-07-05 07:08:47 51°18.553 2°53.858 -999 -999 -999 -999
2007-07-05 07:08:52 51°18.56 2°53.883 -999 -999 -999 -999
2007-07-05 07:08:57 51°18.568 2°53.909 -999 -999 -999 -999
2007-07-05 07:09:02 51°18.576 2°53.935 -999 -999 -999 -999
2007-07-05 07:09:07 51°18.584 2°53.958 -999 -999 -999 -999
2007-07-05 07:09:12 51°18.59 2°53.986 -999 -999 -999 -999
2007-07-05 07:09:17 51°18.6 2°54.012 -999 -999 -999 -999
2007-07-05 07:09:22 51°18.608 2°54.037 -999 -999 -999 -999
2007-07-05 07:09:27 51°18.616 2°54.061 -999 -999 -999 -999
2007-07-05 07:09:32 51°18.623 2°54.089 -999 -999 -999 -999
2007-07-05 07:09:37 51°18.634 2°54.111 -999 -999 -999 -999
2007-07-05 07:09:42 51°18.639 2°54.138 -999 -999 -999 -999
2007-07-05 07:09:47 51°18.648 2°54.163 -999 -999 -999 -999
2007-07-05 07:09:52 51°18.654 2°54.189 -999 -999 -999 -999
2007-07-05 07:09:57 51°18.662 2°54.215 -999 -999 -999 -999
2007-07-05 07:10:02 51°18.668 2°54.242 -999 -999 -999 -999
2007-07-05 07:10:07 51°18.678 2°54.265 -999 -999 -999 -999
2007-07-05 07:10:12 51°18.684 2°54.291 -999 -999 -999 -999
2007-07-05 07:10:17 51°18.693 2°54.317 -999 -999 -999 -999
2007-07-05 07:10:22 51°18.701 2°54.342 -999 -999 -999 -999
2007-07-05 07:10:27 51°18.707 2°54.369 -999 -999 -999 -999
2007-07-05 07:10:32 51°18.717 2°54.391 -999 -999 -999 -999
2007-07-05 07:10:37 51°18.722 2°54.42 -999 -999 -999 -999
2007-07-05 07:10:43 51°18.735 2°54.447 -999 -999 -999 -999
2007-07-05 07:10:47 51°18.736 2°54.47 -999 -999 -999 -999
2007-07-05 07:10:52 51°18.747 2°54.495 -999 -999 -999 -999
2007-07-05 07:10:57 51°18.753 2°54.52 -999 -999 -999 -999
2007-07-05 07:11:03 51°18.76 2°54.553 -999 -999 -999 -999
2007-07-05 07:11:07 51°18.769 2°54.572 -999 -999 -999 -999
2007-07-05 07:11:12 51°18.776 2°54.597 -999 -999 -999 -999
2007-07-05 07:11:17 51°18.785 2°54.622 -999 -999 -999 -999
2007-07-05 07:11:22 51°18.791 2°54.649 -999 -999 -999 -999
2007-07-05 07:11:27 51°18.8 2°54.675 -999 -999 -999 -999
2007-07-05 07:11:32 51°18.809 2°54.699 -999 -999 -999 -999
2007-07-05 07:11:37 51°18.817 2°54.724 -999 -999 -999 -999
2007-07-05 07:11:42 51°18.825 2°54.749 -999 -999 -999 -999
2007-07-05 07:11:47 51°18.834 2°54.774 -999 -999 -999 -999
2007-07-05 07:11:52 51°18.841 2°54.801 -999 -999 -999 -999
2007-07-05 07:11:57 51°18.849 2°54.826 -999 -999 -999 -999
2007-07-05 07:12:02 51°18.855 2°54.851 -999 -999 -999 -999
2007-07-05 07:12:07 51°18.86 2°54.879 -999 -999 -999 -999
2007-07-05 07:12:12 51°18.871 2°54.902 -999 -999 -999 -999
2007-07-05 07:12:17 51°18.876 2°54.928 -999 -999 -999 -999
2007-07-05 07:12:22 51°18.884 2°54.954 -999 -999 -999 -999
2007-07-05 07:12:27 51°18.89 2°54.981 -999 -999 -999 -999
2007-07-05 07:12:32 51°18.898 2°55.006 -999 -999 -999 -999
2007-07-05 07:12:37 51°18.906 2°55.03 -999 -999 -999 -999
2007-07-05 07:12:42 51°18.912 2°55.057 -999 -999 -999 -999
2007-07-05 07:12:47 51°18.92 2°55.083 -999 -999 -999 -999
2007-07-05 07:12:52 51°18.926 2°55.11 -999 -999 -999 -999
2007-07-05 07:12:57 51°18.933 2°55.135 -999 -999 -999 -999
2007-07-05 07:13:03 51°18.941 2°55.167 -999 -999 -999 -999
2007-07-05 07:13:07 51°18.948 2°55.186 -999 -999 -999 -999
2007-07-05 07:13:12 51°18.952 2°55.214 -999 -999 -999 -999
2007-07-05 07:13:17 51°18.961 2°55.241 -999 -999 -999 -999
2007-07-05 07:13:22 51°18.969 2°55.267 -999 -999 -999 -999
2007-07-05 07:13:27 51°18.976 2°55.292 -999 -999 -999 -999
2007-07-05 07:13:32 51°18.984 2°55.318 -999 -999 -999 -999
2007-07-05 07:13:37 51°18.99 2°55.344 -999 -999 -999 -999
2007-07-05 07:13:42 51°18.998 2°55.371 -999 -999 -999 -999
2007-07-05 07:13:47 51°19.005 2°55.398 -999 -999 -999 -999
2007-07-05 07:13:52 51°19.013 2°55.424 -999 -999 -999 -999
2007-07-05 07:13:57 51°19.022 2°55.448 -999 -999 -999 -999
2007-07-05 07:14:02 51°19.029 2°55.474 -999 -999 -999 -999
2007-07-05 07:14:07 51°19.036 2°55.5 -999 -999 -999 -999
2007-07-05 07:14:12 51°19.045 2°55.525 -999 -999 -999 -999
2007-07-05 07:14:17 51°19.05 2°55.553 -999 -999 -999 -999
2007-07-05 07:14:22 51°19.059 2°55.578 -999 -999 -999 -999
2007-07-05 07:14:27 51°19.065 2°55.606 -999 -999 -999 -999
2007-07-05 07:14:32 51°19.075 2°55.628 -999 -999 -999 -999
2007-07-05 07:14:38 51°19.081 2°55.659 -999 -999 -999 -999
2007-07-05 07:14:42 51°19.089 2°55.679 -999 -999 -999 -999
2007-07-05 07:14:47 51°19.094 2°55.706 -999 -999 -999 -999
2007-07-05 07:14:52 51°19.102 2°55.733 -999 -999 -999 -999
2007-07-05 07:14:57 51°19.109 2°55.759 -999 -999 -999 -999
2007-07-05 07:15:03 51°19.119 2°55.787 -999 -999 -999 -999
2007-07-05 07:15:07 51°19.123 2°55.81 -999 -999 -999 -999
2007-07-05 07:15:12 51°19.132 2°55.837 -999 -999 -999 -999
2007-07-05 07:15:17 51°19.141 2°55.862 -999 -999 -999 -999
2007-07-05 07:15:23 51°19.148 2°55.893 -999 -999 -999 -999
2007-07-05 07:15:27 51°19.154 2°55.914 -999 -999 -999 -999
2007-07-05 07:15:32 51°19.16 2°55.941 -999 -999 -999 -999
2007-07-05 07:15:37 51°19.169 2°55.964 -999 -999 -999 -999
2007-07-05 07:15:43 51°19.175 2°55.997 -999 -999 -999 -999
2007-07-05 07:15:47 51°19.182 2°56.019 -999 -999 -999 -999
2007-07-05 07:15:52 51°19.19 2°56.043 -999 -999 -999 -999
2007-07-05 07:15:57 51°19.195 2°56.069 -999 -999 -999 -999
2007-07-05 07:16:02 51°19.202 2°56.096 -999 -999 -999 -999
2007-07-05 07:16:07 51°19.21 2°56.122 -999 -999 -999 -999
2007-07-05 07:16:12 51°19.217 2°56.147 -999 -999 -999 -999
2007-07-05 07:16:17 51°19.223 2°56.172 -999 -999 -999 -999
2007-07-05 07:16:22 51°19.231 2°56.2 -999 -999 -999 -999
2007-07-05 07:16:27 51°19.239 2°56.225 -999 -999 -999 -999
2007-07-05 07:16:32 51°19.244 2°56.249 -999 -999 -999 -999
2007-07-05 07:16:37 51°19.25 2°56.278 -999 -999 -999 -999
2007-07-05 07:16:42 51°19.26 2°56.304 -999 -999 -999 -999
2007-07-05 07:16:47 51°19.265 2°56.328 -999 -999 -999 -999
2007-07-05 07:16:52 51°19.271 2°56.354 -999 -999 -999 -999
2007-07-05 07:16:57 51°19.28 2°56.38 -999 -999 -999 -999
2007-07-05 07:17:02 51°19.287 2°56.406 -999 -999 -999 -999
2007-07-05 07:17:07 51°19.295 2°56.431 -999 -999 -999 -999
2007-07-05 07:17:12 51°19.302 2°56.456 -999 -999 -999 -999
2007-07-05 07:17:17 51°19.308 2°56.482 -999 -999 -999 -999
2007-07-05 07:17:23 51°19.318 2°56.515 -999 -999 -999 -999
2007-07-05 07:17:27 51°19.326 2°56.533 -999 -999 -999 -999
2007-07-05 07:17:32 51°19.331 2°56.56 -999 -999 -999 -999
2007-07-05 07:17:37 51°19.34 2°56.583 -999 -999 -999 -999
2007-07-05 07:17:43 51°19.347 2°56.616 -999 -999 -999 -999
2007-07-05 07:17:47 51°19.355 2°56.635 -999 -999 -999 -999
2007-07-05 07:17:52 51°19.363 2°56.659 -999 -999 -999 -999
2007-07-05 07:17:57 51°19.367 2°56.686 -999 -999 -999 -999
2007-07-05 07:18:02 51°19.376 2°56.71 -999 -999 -999 -999
2007-07-05 07:18:07 51°19.381 2°56.737 -999 -999 -999 -999
2007-07-05 07:18:12 51°19.388 2°56.765 -999 -999 -999 -999
2007-07-05 07:18:17 51°19.397 2°56.789 -999 -999 -999 -999
2007-07-05 07:18:22 51°19.402 2°56.815 -999 -999 -999 -999
2007-07-05 07:18:27 51°19.407 2°56.842 -999 -999 -999 -999
2007-07-05 07:18:32 51°19.416 2°56.865 -999 -999 -999 -999
2007-07-05 07:18:37 51°19.422 2°56.892 -999 -999 -999 -999
2007-07-05 07:18:42 51°19.432 2°56.917 -999 -999 -999 -999
2007-07-05 07:18:47 51°19.438 2°56.943 -999 -999 -999 -999
2007-07-05 07:18:52 51°19.445 2°56.969 -999 -999 -999 -999
2007-07-05 07:18:57 51°19.453 2°56.994 -999 -999 -999 -999
2007-07-05 07:19:02 51°19.461 2°57.019 -999 -999 -999 -999
2007-07-05 07:19:07 51°19.468 2°57.045 -999 -999 -999 -999
2007-07-05 07:19:12 51°19.476 2°57.071 -999 -999 -999 -999
2007-07-05 07:19:17 51°19.482 2°57.097 -999 -999 -999 -999
2007-07-05 07:19:23 51°19.491 2°57.128 -999 -999 -999 -999
2007-07-05 07:19:27 51°19.498 2°57.148 -999 -999 -999 -999
2007-07-05 07:19:32 51°19.504 2°57.174 -999 -999 -999 -999
2007-07-05 07:19:37 51°19.513 2°57.198 -999 -999 -999 -999
2007-07-05 07:19:43 51°19.52 2°57.231 -999 -999 -999 -999
2007-07-05 07:19:47 51°19.527 2°57.251 -999 -999 -999 -999
2007-07-05 07:19:52 51°19.534 2°57.276 -999 -999 -999 -999
2007-07-05 07:19:57 51°19.54 2°57.303 -999 -999 -999 -999
2007-07-05 07:20:02 51°19.549 2°57.328 -999 -999 -999 -999
2007-07-05 07:20:07 51°19.555 2°57.356 -999 -999 -999 -999
2007-07-05 07:20:12 51°19.564 2°57.379 -999 -999 -999 -999
2007-07-05 07:20:17 51°19.567 2°57.407 -999 -999 -999 -999
2007-07-05 07:20:22 51°19.577 2°57.43 -999 -999 -999 -999
2007-07-05 07:20:27 51°19.583 2°57.456 -999 -999 -999 -999
2007-07-05 07:20:32 51°19.591 2°57.482 -999 -999 -999 -999
2007-07-05 07:20:37 51°19.6 2°57.505 -999 -999 -999 -999
2007-07-05 07:20:42 51°19.605 2°57.531 -999 -999 -999 -999
2007-07-05 07:20:47 51°19.614 2°57.556 -999 -999 -999 -999
2007-07-05 07:20:52 51°19.62 2°57.584 -999 -999 -999 -999
2007-07-05 07:20:57 51°19.629 2°57.607 -999 -999 -999 -999
2007-07-05 07:21:02 51°19.634 2°57.632 -999 -999 -999 -999
2007-07-05 07:21:07 51°19.643 2°57.657 -999 -999 -999 -999
2007-07-05 07:21:12 51°19.65 2°57.683 -999 -999 -999 -999
2007-07-05 07:21:17 51°19.659 2°57.708 -999 -999 -999 -999
2007-07-05 07:21:22 51°19.664 2°57.734 -999 -999 -999 -999
2007-07-05 07:21:27 51°19.671 2°57.76 -999 -999 -999 -999
2007-07-05 07:21:32 51°19.679 2°57.784 -999 -999 -999 -999
2007-07-05 07:21:37 51°19.685 2°57.81 -999 -999 -999 -999
2007-07-05 07:21:43 51°19.695 2°57.842 -999 -999 -999 -999
2007-07-05 07:21:47 51°19.701 2°57.862 -999 -999 -999 -999
2007-07-05 07:21:52 51°19.707 2°57.886 -999 -999 -999 -999
2007-07-05 07:21:57 51°19.712 2°57.913 -999 -999 -999 -999
2007-07-05 07:22:03 51°19.722 2°57.944 -999 -999 -999 -999
2007-07-05 07:22:07 51°19.728 2°57.963 -999 -999 -999 -999
2007-07-05 07:22:12 51°19.735 2°57.989 -999 -999 -999 -999
2007-07-05 07:22:17 51°19.742 2°58.015 -999 -999 -999 -999
2007-07-05 07:22:23 51°19.749 2°58.046 -999 -999 -999 -999
2007-07-05 07:22:27 51°19.755 2°58.068 -999 -999 -999 -999
2007-07-05 07:22:32 51°19.763 2°58.093 -999 -999 -999 -999
2007-07-05 07:22:37 51°19.769 2°58.117 -999 -999 -999 -999
2007-07-05 07:22:42 51°19.775 2°58.145 -999 -999 -999 -999
2007-07-05 07:22:47 51°19.784 2°58.17 -999 -999 -999 -999
2007-07-05 07:22:52 51°19.789 2°58.196 -999 -999 -999 -999
2007-07-05 07:22:57 51°19.798 2°58.221 -999 -999 -999 -999
2007-07-05 07:23:02 51°19.804 2°58.248 -999 -999 -999 -999
2007-07-05 07:23:07 51°19.812 2°58.273 -999 -999 -999 -999
2007-07-05 07:23:12 51°19.817 2°58.298 -999 -999 -999 -999
2007-07-05 07:23:17 51°19.825 2°58.325 -999 -999 -999 -999
2007-07-05 07:23:23 51°19.835 2°58.354 -999 -999 -999 -999
2007-07-05 07:23:27 51°19.841 2°58.374 -999 -999 -999 -999
2007-07-05 07:23:32 51°19.848 2°58.4 -999 -999 -999 -999
2007-07-05 07:23:37 51°19.855 2°58.426 -999 -999 -999 -999
2007-07-05 07:23:42 51°19.862 2°58.45 -999 -999 -999 -999
2007-07-05 07:23:47 51°19.869 2°58.476 -999 -999 -999 -999
2007-07-05 07:23:52 51°19.878 2°58.501 -999 -999 -999 -999
2007-07-05 07:23:58 51°19.884 2°58.533 -999 -999 -999 -999
2007-07-05 07:24:03 51°19.893 2°58.556 -999 -999 -999 -999
2007-07-05 07:24:07 51°19.896 2°58.578 -999 -999 -999 -999
2007-07-05 07:24:12 51°19.904 2°58.603 -999 -999 -999 -999
2007-07-05 07:24:17 51°19.909 2°58.631 -999 -999 -999 -999
2007-07-05 07:24:23 51°19.92 2°58.66 -999 -999 -999 -999
2007-07-05 07:24:27 51°19.924 2°58.683 -999 -999 -999 -999
2007-07-05 07:24:32 51°19.934 2°58.707 -999 -999 -999 -999
2007-07-05 07:24:37 51°19.937 2°58.735 -999 -999 -999 -999
2007-07-05 07:24:42 51°19.948 2°58.758 -999 -999 -999 -999
2007-07-05 07:24:47 51°19.952 2°58.785 -999 -999 -999 -999
2007-07-05 07:24:52 51°19.96 2°58.811 -999 -999 -999 -999
2007-07-05 07:24:57 51°19.968 2°58.836 -999 -999 -999 -999
2007-07-05 07:25:02 51°19.973 2°58.864 -999 -999 -999 -999
2007-07-05 07:25:07 51°19.983 2°58.887 -999 -999 -999 -999
2007-07-05 07:25:12 51°19.988 2°58.913 -999 -999 -999 -999
2007-07-05 07:25:17 51°19.994 2°58.94 -999 -999 -999 -999
2007-07-05 07:25:22 51°20.004 2°58.965 -999 -999 -999 -999
2007-07-05 07:25:27 51°20.012 2°58.99 -999 -999 -999 -999
2007-07-05 07:25:32 51°20.019 2°59.017 -999 -999 -999 -999
2007-07-05 07:25:37 51°20.028 2°59.042 -999 -999 -999 -999
2007-07-05 07:25:43 51°20.035 2°59.071 -999 -999 -999 -999
2007-07-05 07:25:47 51°20.042 2°59.092 -999 -999 -999 -999
2007-07-05 07:25:52 51°20.05 2°59.119 -999 -999 -999 -999
2007-07-05 07:25:57 51°20.058 2°59.144 -999 -999 -999 -999
2007-07-05 07:26:02 51°20.065 2°59.171 -999 -999 -999 -999
2007-07-05 07:26:07 51°20.073 2°59.195 -999 -999 -999 -999
2007-07-05 07:26:12 51°20.08 2°59.221 -999 -999 -999 -999
2007-07-05 07:26:17 51°20.087 2°59.249 -999 -999 -999 -999
2007-07-05 07:26:23 51°20.098 2°59.278 -999 -999 -999 -999
2007-07-05 07:26:27 51°20.102 2°59.299 -999 -999 -999 -999
2007-07-05 07:26:32 51°20.111 2°59.324 -999 -999 -999 -999
2007-07-05 07:26:37 51°20.116 2°59.351 -999 -999 -999 -999
2007-07-05 07:26:43 51°20.127 2°59.38 -999 -999 -999 -999
2007-07-05 07:26:47 51°20.13 2°59.402 -999 -999 -999 -999
2007-07-05 07:26:52 51°20.139 2°59.429 -999 -999 -999 -999
2007-07-05 07:26:57 51°20.147 2°59.454 -999 -999 -999 -999
2007-07-05 07:27:02 51°20.154 2°59.479 -999 -999 -999 -999
2007-07-05 07:27:07 51°20.162 2°59.503 -999 -999 -999 -999
2007-07-05 07:27:12 51°20.17 2°59.529 -999 -999 -999 -999
2007-07-05 07:27:17 51°20.177 2°59.555 -999 -999 -999 -999
2007-07-05 07:27:22 51°20.183 2°59.581 -999 -999 -999 -999
2007-07-05 07:27:27 51°20.192 2°59.606 -999 -999 -999 -999
2007-07-05 07:27:32 51°20.198 2°59.632 -999 -999 -999 -999
2007-07-05 07:27:37 51°20.203 2°59.658 -999 -999 -999 -999
2007-07-05 07:27:42 51°20.211 2°59.683 -999 -999 -999 -999
2007-07-05 07:27:47 51°20.217 2°59.712 -999 -999 -999 -999
2007-07-05 07:27:52 51°20.227 2°59.735 -999 -999 -999 -999
2007-07-05 07:27:57 51°20.231 2°59.761 -999 -999 -999 -999
2007-07-05 07:28:03 51°20.24 2°59.793 -999 -999 -999 -999
2007-07-05 07:28:07 51°20.244 2°59.814 -999 -999 -999 -999
2007-07-05 07:28:12 51°20.252 2°59.838 -999 -999 -999 -999
2007-07-05 07:28:17 51°20.256 2°59.866 -999 -999 -999 -999
2007-07-05 07:28:22 51°20.266 2°59.892 -999 -999 -999 -999
2007-07-05 07:28:27 51°20.272 2°59.918 -999 -999 -999 -999
2007-07-05 07:28:32 51°20.278 2°59.942 -999 -999 -999 -999
2007-07-05 07:28:37 51°20.284 2°59.97 -999 -999 -999 -999
2007-07-05 07:28:43 51°20.295 2°59.999 -999 -999 -999 -999
2007-07-05 07:28:47 51°20.297 3°0.021 -999 -999 -999 -999
2007-07-05 07:28:52 51°20.304 3°0.049 -999 -999 -999 -999
2007-07-05 07:28:57 51°20.313 3°0.074 -999 -999 -999 -999
2007-07-05 07:29:03 51°20.319 3°0.105 -999 -999 -999 -999
2007-07-05 07:29:07 51°20.326 3°0.125 -999 -999 -999 -999
2007-07-05 07:29:12 51°20.332 3°0.151 -999 -999 -999 -999
2007-07-05 07:29:17 51°20.339 3°0.176 -999 -999 -999 -999
2007-07-05 07:29:23 51°20.346 3°0.207 -999 -999 -999 -999
2007-07-05 07:29:27 51°20.352 3°0.227 -999 -999 -999 -999
2007-07-05 07:29:32 51°20.357 3°0.255 -999 -999 -999 -999
2007-07-05 07:29:37 51°20.364 3°0.283 -999 -999 -999 -999
2007-07-05 07:29:42 51°20.374 3°0.305 -999 -999 -999 -999
2007-07-05 07:29:47 51°20.376 3°0.332 -999 -999 -999 -999
2007-07-05 07:29:52 51°20.384 3°0.359 -999 -999 -999 -999
2007-07-05 07:29:57 51°20.389 3°0.385 -999 -999 -999 -999
2007-07-05 07:30:02 51°20.395 3°0.41 -999 -999 -999 -999
2007-07-05 07:30:07 51°20.402 3°0.435 -999 -999 -999 -999
2007-07-05 07:30:12 51°20.407 3°0.462 -999 -999 -999 -999
2007-07-05 07:30:17 51°20.416 3°0.488 -999 -999 -999 -999
2007-07-05 07:30:23 51°20.421 3°0.522 -999 -999 -999 -999
2007-07-05 07:30:27 51°20.43 3°0.54 -999 -999 -999 -999
2007-07-05 07:30:32 51°20.433 3°0.566 -999 -999 -999 -999
2007-07-05 07:30:37 51°20.441 3°0.592 -999 -999 -999 -999
2007-07-05 07:30:42 51°20.447 3°0.619 -999 -999 -999 -999
2007-07-05 07:30:47 51°20.454 3°0.644 -999 -999 -999 -999
2007-07-05 07:30:52 51°20.46 3°0.67 -999 -999 -999 -999
2007-07-05 07:30:57 51°20.467 3°0.696 -999 -999 -999 -999
2007-07-05 07:31:03 51°20.476 3°0.726 -999 -999 -999 -999
2007-07-05 07:31:07 51°20.482 3°0.746 -999 -999 -999 -999
2007-07-05 07:31:12 51°20.487 3°0.772 -999 -999 -999 -999
2007-07-05 07:31:17 51°20.495 3°0.796 -999 -999 -999 -999
2007-07-05 07:31:23 51°20.501 3°0.83 -999 -999 -999 -999
2007-07-05 07:31:27 51°20.508 3°0.85 -999 -999 -999 -999
2007-07-05 07:31:32 51°20.517 3°0.873 -999 -999 -999 -999
2007-07-05 07:31:37 51°20.523 3°0.897 -999 -999 -999 -999
2007-07-05 07:31:42 51°20.53 3°0.924 -999 -999 -999 -999
2007-07-05 07:31:47 51°20.539 3°0.95 -999 -999 -999 -999
2007-07-05 07:31:52 51°20.544 3°0.974 -999 -999 -999 -999
2007-07-05 07:31:57 51°20.55 3°1.001 -999 -999 -999 -999
2007-07-05 07:32:02 51°20.558 3°1.024 -999 -999 -999 -999
2007-07-05 07:32:07 51°20.565 3°1.048 -999 -999 -999 -999
2007-07-05 07:32:12 51°20.572 3°1.075 -999 -999 -999 -999
2007-07-05 07:32:17 51°20.581 3°1.099 -999 -999 -999 -999
2007-07-05 07:32:22 51°20.586 3°1.126 -999 -999 -999 -999
2007-07-05 07:32:27 51°20.592 3°1.15 -999 -999 -999 -999
2007-07-05 07:32:32 51°20.599 3°1.176 -999 -999 -999 -999
2007-07-05 07:32:37 51°20.607 3°1.201 -999 -999 -999 -999
2007-07-05 07:32:42 51°20.613 3°1.226 -999 -999 -999 -999
2007-07-05 07:32:47 51°20.618 3°1.254 -999 -999 -999 -999
2007-07-05 07:32:52 51°20.626 3°1.279 -999 -999 -999 -999
2007-07-05 07:32:57 51°20.631 3°1.305 -999 -999 -999 -999
2007-07-05 07:33:02 51°20.637 3°1.331 -999 -999 -999 -999
2007-07-05 07:33:07 51°20.645 3°1.357 -999 -999 -999 -999
2007-07-05 07:33:12 51°20.653 3°1.382 -999 -999 -999 -999
2007-07-05 07:33:17 51°20.66 3°1.407 -999 -999 -999 -999
2007-07-05 07:33:23 51°20.667 3°1.439 -999 -999 -999 -999
2007-07-05 07:33:27 51°20.674 3°1.458 -999 -999 -999 -999
2007-07-05 07:33:32 51°20.679 3°1.485 -999 -999 -999 -999
2007-07-05 07:33:37 51°20.689 3°1.509 -999 -999 -999 -999
2007-07-05 07:33:43 51°20.695 3°1.539 -999 -999 -999 -999
2007-07-05 07:33:47 51°20.701 3°1.559 -999 -999 -999 -999
2007-07-05 07:33:52 51°20.706 3°1.586 -999 -999 -999 -999
2007-07-05 07:33:57 51°20.713 3°1.611 -999 -999 -999 -999
2007-07-05 07:34:03 51°20.718 3°1.642 -999 -999 -999 -999
2007-07-05 07:34:07 51°20.724 3°1.663 -999 -999 -999 -999
2007-07-05 07:34:12 51°20.729 3°1.691 -999 -999 -999 -999
2007-07-05 07:34:17 51°20.736 3°1.716 -999 -999 -999 -999
2007-07-05 07:34:22 51°20.741 3°1.742 -999 -999 -999 -999
2007-07-05 07:34:27 51°20.747 3°1.768 -999 -999 -999 -999
2007-07-05 07:34:32 51°20.753 3°1.795 -999 -999 -999 -999
2007-07-05 07:34:37 51°20.76 3°1.822 -999 -999 -999 -999
2007-07-05 07:34:42 51°20.766 3°1.847 -999 -999 -999 -999
2007-07-05 07:34:47 51°20.771 3°1.874 -999 -999 -999 -999
2007-07-05 07:34:52 51°20.777 3°1.902 -999 -999 -999 -999
2007-07-05 07:34:57 51°20.785 3°1.926 -999 -999 -999 -999
2007-07-05 07:35:02 51°20.786 3°1.951 -999 -999 -999 -999
2007-07-05 07:35:07 51°20.792 3°1.98 -999 -999 -999 -999
2007-07-05 07:35:12 51°20.797 3°2.009 -999 -999 -999 -999
2007-07-05 07:35:17 51°20.805 3°2.032 -999 -999 -999 -999
2007-07-05 07:35:22 51°20.807 3°2.058 -999 -999 -999 -999
2007-07-05 07:35:27 51°20.814 3°2.085 -999 -999 -999 -999
2007-07-05 07:35:32 51°20.818 3°2.113 -999 -999 -999 -999
2007-07-05 07:35:37 51°20.824 3°2.138 -999 -999 -999 -999
2007-07-05 07:35:43 51°20.829 3°2.17 -999 -999 -999 -999
2007-07-05 07:35:47 51°20.834 3°2.19 -999 -999 -999 -999
2007-07-05 07:35:52 51°20.841 3°2.216 -999 -999 -999 -999
2007-07-05 07:35:57 51°20.847 3°2.242 -999 -999 -999 -999
2007-07-05 07:36:03 51°20.853 3°2.272 -999 -999 -999 -999
2007-07-05 07:36:07 51°20.858 3°2.292 -999 -999 -999 -999
2007-07-05 07:36:12 51°20.862 3°2.321 -999 -999 -999 -999
2007-07-05 07:36:17 51°20.871 3°2.345 -999 -999 -999 -999
2007-07-05 07:36:22 51°20.877 3°2.371 -999 -999 -999 -999
2007-07-05 07:36:27 51°20.882 3°2.397 -999 -999 -999 -999
2007-07-05 07:36:32 51°20.89 3°2.422 -999 -999 -999 -999
2007-07-05 07:36:37 51°20.898 3°2.447 -999 -999 -999 -999
2007-07-05 07:36:42 51°20.903 3°2.472 -999 -999 -999 -999
2007-07-05 07:36:47 51°20.91 3°2.499 -999 -999 -999 -999
2007-07-05 07:36:52 51°20.917 3°2.523 -999 -999 -999 -999
2007-07-05 07:36:57 51°20.922 3°2.549 -999 -999 -999 -999
2007-07-05 07:37:02 51°20.929 3°2.575 -999 -999 -999 -999
2007-07-05 07:37:07 51°20.935 3°2.601 -999 -999 -999 -999
2007-07-05 07:37:12 51°20.94 3°2.627 -999 -999 -999 -999
2007-07-05 07:37:17 51°20.946 3°2.653 -999 -999 -999 -999
2007-07-05 07:37:22 51°20.952 3°2.679 -999 -999 -999 -999
2007-07-05 07:37:27 51°20.957 3°2.706 -999 -999 -999 -999
2007-07-05 07:37:32 51°20.963 3°2.732 -999 -999 -999 -999
2007-07-05 07:37:37 51°20.968 3°2.759 -999 -999 -999 -999
2007-07-05 07:37:43 51°20.976 3°2.789 -999 -999 -999 -999
2007-07-05 07:37:47 51°20.98 3°2.81 -999 -999 -999 -999
2007-07-05 07:37:52 51°20.986 3°2.837 -999 -999 -999 -999
2007-07-05 07:37:57 51°20.993 3°2.863 -999 -999 -999 -999
2007-07-05 07:38:03 51°20.997 3°2.895 -999 -999 -999 -999
2007-07-05 07:38:07 51°21.003 3°2.916 -999 -999 -999 -999
2007-07-05 07:38:12 51°21.01 3°2.941 -999 -999 -999 -999
2007-07-05 07:38:17 51°21.015 3°2.967 -999 -999 -999 -999
2007-07-05 07:38:22 51°21.023 3°2.992 -999 -999 -999 -999
2007-07-05 07:38:27 51°21.027 3°3.019 -999 -999 -999 -999
2007-07-05 07:38:32 51°21.034 3°3.045 -999 -999 -999 -999
2007-07-05 07:38:37 51°21.039 3°3.071 -999 -999 -999 -999
2007-07-05 07:38:42 51°21.044 3°3.097 -999 -999 -999 -999
2007-07-05 07:38:47 51°21.049 3°3.125 -999 -999 -999 -999
2007-07-05 07:38:52 51°21.056 3°3.151 -999 -999 -999 -999
2007-07-05 07:38:57 51°21.06 3°3.177 -999 -999 -999 -999
2007-07-05 07:39:02 51°21.065 3°3.202 -999 -999 -999 -999
2007-07-05 07:39:07 51°21.07 3°3.23 -999 -999 -999 -999
2007-07-05 07:39:12 51°21.078 3°3.256 -999 -999 -999 -999
2007-07-05 07:39:17 51°21.083 3°3.282 -999 -999 -999 -999
2007-07-05 07:39:22 51°21.089 3°3.309 -999 -999 -999 -999
2007-07-05 07:39:27 51°21.093 3°3.334 -999 -999 -999 -999
2007-07-05 07:39:32 51°21.099 3°3.36 -999 -999 -999 -999
2007-07-05 07:39:37 51°21.104 3°3.387 -999 -999 -999 -999
2007-07-05 07:39:42 51°21.11 3°3.414 -999 -999 -999 -999
2007-07-05 07:39:47 51°21.116 3°3.44 -999 -999 -999 -999
2007-07-05 07:39:52 51°21.123 3°3.465 -999 -999 -999 -999
2007-07-05 07:39:57 51°21.127 3°3.491 -999 -999 -999 -999
2007-07-05 07:40:03 51°21.135 3°3.522 -999 -999 -999 -999
2007-07-05 07:40:07 51°21.14 3°3.543 -999 -999 -999 -999
2007-07-05 07:40:12 51°21.148 3°3.568 -999 -999 -999 -999
2007-07-05 07:40:17 51°21.152 3°3.594 -999 -999 -999 -999
2007-07-05 07:40:23 51°21.16 3°3.625 -999 -999 -999 -999
2007-07-05 07:40:27 51°21.164 3°3.645 -999 -999 -999 -999
2007-07-05 07:40:32 51°21.169 3°3.671 -999 -999 -999 -999
2007-07-05 07:40:37 51°21.174 3°3.699 -999 -999 -999 -999
2007-07-05 07:40:43 51°21.183 3°3.728 -999 -999 -999 -999
2007-07-05 07:40:47 51°21.185 3°3.749 -999 -999 -999 -999
2007-07-05 07:40:52 51°21.191 3°3.776 -999 -999 -999 -999
2007-07-05 07:40:57 51°21.198 3°3.803 -999 -999 -999 -999
2007-07-05 07:41:02 51°21.202 3°3.828 -999 -999 -999 -999
2007-07-05 07:41:07 51°21.207 3°3.853 -999 -999 -999 -999
2007-07-05 07:41:12 51°21.211 3°3.88 -999 -999 -999 -999
2007-07-05 07:41:17 51°21.218 3°3.908 -999 -999 -999 -999
2007-07-05 07:41:22 51°21.225 3°3.933 -999 -999 -999 -999
2007-07-05 07:41:27 51°21.228 3°3.957 -999 -999 -999 -999
2007-07-05 07:41:32 51°21.233 3°3.985 -999 -999 -999 -999
2007-07-05 07:41:37 51°21.241 3°4.01 -999 -999 -999 -999
2007-07-05 07:41:43 51°21.246 3°4.041 -999 -999 -999 -999
2007-07-05 07:41:47 51°21.25 3°4.062 -999 -999 -999 -999
2007-07-05 07:41:52 51°21.257 3°4.087 -999 -999 -999 -999
2007-07-05 07:41:57 51°21.26 3°4.116 -999 -999 -999 -999
2007-07-05 07:42:02 51°21.268 3°4.14 -999 -999 -999 -999
2007-07-05 07:42:07 51°21.272 3°4.165 -999 -999 -999 -999
2007-07-05 07:42:12 51°21.278 3°4.191 -999 -999 -999 -999
2007-07-05 07:42:18 51°21.285 3°4.224 -999 -999 -999 -999
2007-07-05 07:42:23 51°21.291 3°4.25 -999 -999 -999 -999
2007-07-05 07:42:27 51°21.296 3°4.271 -999 -999 -999 -999
2007-07-05 07:42:32 51°21.302 3°4.297 -999 -999 -999 -999
2007-07-05 07:42:37 51°21.308 3°4.324 -999 -999 -999 -999
2007-07-05 07:42:43 51°21.314 3°4.355 -999 -999 -999 -999
2007-07-05 07:42:47 51°21.318 3°4.377 -999 -999 -999 -999
2007-07-05 07:42:52 51°21.325 3°4.403 -999 -999 -999 -999
2007-07-05 07:42:57 51°21.329 3°4.43 -999 -999 -999 -999
2007-07-05 07:43:02 51°21.336 3°4.457 -999 -999 -999 -999
2007-07-05 07:43:07 51°21.344 3°4.481 -999 -999 -999 -999
2007-07-05 07:43:12 51°21.348 3°4.507 -999 -999 -999 -999
2007-07-05 07:43:17 51°21.354 3°4.535 -999 -999 -999 -999
2007-07-05 07:43:22 51°21.362 3°4.559 -999 -999 -999 -999
2007-07-05 07:43:27 51°21.363 3°4.585 -999 -999 -999 -999
2007-07-05 07:43:32 51°21.369 3°4.612 -999 -999 -999 -999
2007-07-05 07:43:37 51°21.375 3°4.638 -999 -999 -999 -999
2007-07-05 07:43:42 51°21.381 3°4.665 -999 -999 -999 -999
2007-07-05 07:43:47 51°21.387 3°4.689 -999 -999 -999 -999
2007-07-05 07:43:52 51°21.39 3°4.716 -999 -999 -999 -999
2007-07-05 07:43:57 51°21.396 3°4.743 -999 -999 -999 -999
2007-07-05 07:44:03 51°21.405 3°4.772 -999 -999 -999 -999
2007-07-05 07:44:07 51°21.407 3°4.794 -999 -999 -999 -999
2007-07-05 07:44:12 51°21.415 3°4.819 -999 -999 -999 -999
2007-07-05 07:44:17 51°21.419 3°4.846 -999 -999 -999 -999
2007-07-05 07:44:22 51°21.425 3°4.871 -999 -999 -999 -999
2007-07-05 07:44:27 51°21.431 3°4.897 -999 -999 -999 -999
2007-07-05 07:44:32 51°21.437 3°4.922 -999 -999 -999 -999
2007-07-05 07:44:38 51°21.441 3°4.954 -999 -999 -999 -999
2007-07-05 07:44:43 51°21.449 3°4.979 -999 -999 -999 -999
2007-07-05 07:44:47 51°21.451 3°4.999 -999 -999 -999 -999
2007-07-05 07:44:52 51°21.455 3°5.027 -999 -999 -999 -999
2007-07-05 07:44:57 51°21.463 3°5.052 -999 -999 -999 -999
2007-07-05 07:45:03 51°21.469 3°5.084 -999 -999 -999 -999
2007-07-05 07:45:07 51°21.475 3°5.102 -999 -999 -999 -999
2007-07-05 07:45:12 51°21.478 3°5.128 -999 -999 -999 -999
2007-07-05 07:45:17 51°21.485 3°5.153 -999 -999 -999 -999
2007-07-05 07:45:23 51°21.491 3°5.187 -999 -999 -999 -999
2007-07-05 07:45:27 51°21.498 3°5.205 -999 -999 -999 -999
2007-07-05 07:45:32 51°21.501 3°5.231 -999 -999 -999 -999
2007-07-05 07:45:37 51°21.509 3°5.255 -999 -999 -999 -999
2007-07-05 07:45:42 51°21.511 3°5.283 -999 -999 -999 -999
2007-07-05 07:45:47 51°21.52 3°5.306 -999 -999 -999 -999
2007-07-05 07:45:52 51°21.523 3°5.331 -999 -999 -999 -999
2007-07-05 07:45:57 51°21.53 3°5.356 -999 -999 -999 -999
2007-07-05 07:46:02 51°21.536 3°5.383 -999 -999 -999 -999
2007-07-05 07:46:07 51°21.542 3°5.408 -999 -999 -999 -999
2007-07-05 07:46:12 51°21.547 3°5.432 -999 -999 -999 -999
2007-07-05 07:46:17 51°21.552 3°5.459 -999 -999 -999 -999
2007-07-05 07:46:23 51°21.56 3°5.489 -999 -999 -999 -999
2007-07-05 07:46:27 51°21.565 3°5.509 -999 -999 -999 -999
2007-07-05 07:46:32 51°21.571 3°5.533 -999 -999 -999 -999
2007-07-05 07:46:37 51°21.576 3°5.56 -999 -999 -999 -999
2007-07-05 07:46:42 51°21.583 3°5.584 -999 -999 -999 -999
2007-07-05 07:46:47 51°21.587 3°5.611 -999 -999 -999 -999
2007-07-05 07:46:52 51°21.595 3°5.634 -999 -999 -999 -999
2007-07-05 07:46:58 51°21.6 3°5.668 -999 -999 -999 -999
2007-07-05 07:47:03 51°21.61 3°5.692 -999 -999 -999 -999
2007-07-05 07:47:07 51°21.614 3°5.712 -999 -999 -999 -999
2007-07-05 07:47:12 51°21.62 3°5.736 -999 -999 -999 -999
2007-07-05 07:47:17 51°21.626 3°5.762 -999 -999 -999 -999
2007-07-05 07:47:23 51°21.632 3°5.794 -999 -999 -999 -999
2007-07-05 07:47:27 51°21.636 3°5.814 -999 -999 -999 -999
2007-07-05 07:47:32 51°21.642 3°5.84 -999 -999 -999 -999
2007-07-05 07:47:37 51°21.648 3°5.866 -999 -999 -999 -999
2007-07-05 07:47:42 51°21.655 3°5.891 -999 -999 -999 -999
2007-07-05 07:47:47 51°21.658 3°5.916 -999 -999 -999 -999
2007-07-05 07:47:52 51°21.664 3°5.942 -999 -999 -999 -999
2007-07-05 07:47:57 51°21.67 3°5.968 -999 -999 -999 -999
2007-07-05 07:48:02 51°21.675 3°5.993 -999 -999 -999 -999
2007-07-05 07:48:07 51°21.679 3°6.018 -999 -999 -999 -999
2007-07-05 07:48:12 51°21.685 3°6.043 -999 -999 -999 -999
2007-07-05 07:48:17 51°21.69 3°6.071 -999 -999 -999 -999
2007-07-05 07:48:22 51°21.697 3°6.097 -999 -999 -999 -999
2007-07-05 07:48:27 51°21.702 3°6.12 -999 -999 -999 -999
2007-07-05 07:48:32 51°21.705 3°6.146 -999 -999 -999 -999
2007-07-05 07:48:37 51°21.712 3°6.174 -999 -999 -999 -999
2007-07-05 07:48:43 51°21.72 3°6.204 -999 -999 -999 -999
2007-07-05 07:48:47 51°21.723 3°6.224 -999 -999 -999 -999
2007-07-05 07:48:52 51°21.729 3°6.251 -999 -999 -999 -999
2007-07-05 07:48:57 51°21.736 3°6.276 -999 -999 -999 -999
2007-07-05 07:49:03 51°21.741 3°6.306 -999 -999 -999 -999
2007-07-05 07:49:07 51°21.745 3°6.328 -999 -999 -999 -999
2007-07-05 07:49:12 51°21.752 3°6.354 -999 -999 -999 -999
2007-07-05 07:49:18 51°21.76 3°6.384 -999 -999 -999 -999
2007-07-05 07:49:23 51°21.766 3°6.408 -999 -999 -999 -999
2007-07-05 07:49:27 51°21.772 3°6.428 -999 -999 -999 -999
2007-07-05 07:49:32 51°21.777 3°6.452 -999 -999 -999 -999
2007-07-05 07:49:37 51°21.782 3°6.477 -999 -999 -999 -999
2007-07-05 07:49:43 51°21.789 3°6.509 -999 -999 -999 -999
2007-07-05 07:49:47 51°21.795 3°6.527 -999 -999 -999 -999
2007-07-05 07:49:52 51°21.798 3°6.554 -999 -999 -999 -999
2007-07-05 07:49:57 51°21.803 3°6.578 -999 -999 -999 -999
2007-07-05 07:50:03 51°21.807 3°6.609 -999 -999 -999 -999
2007-07-05 07:50:07 51°21.811 3°6.631 -999 -999 -999 -999
2007-07-05 07:50:12 51°21.819 3°6.657 -999 -999 -999 -999
2007-07-05 07:50:17 51°21.823 3°6.681 -999 -999 -999 -999
2007-07-05 07:50:22 51°21.825 3°6.705 -999 -999 -999 -999
2007-07-05 07:50:27 51°21.83 3°6.732 -999 -999 -999 -999
2007-07-05 07:50:32 51°21.837 3°6.759 -999 -999 -999 -999
2007-07-05 07:50:37 51°21.844 3°6.781 -999 -999 -999 -999
2007-07-05 07:50:42 51°21.847 3°6.807 -999 -999 -999 -999
2007-07-05 07:50:47 51°21.851 3°6.832 -999 -999 -999 -999
2007-07-05 07:50:52 51°21.856 3°6.858 -999 -999 -999 -999
2007-07-05 07:50:57 51°21.86 3°6.883 -999 -999 -999 -999
2007-07-05 07:51:03 51°21.868 3°6.912 -999 -999 -999 -999
2007-07-05 07:51:07 51°21.869 3°6.934 -999 -999 -999 -999
2007-07-05 07:51:12 51°21.877 3°6.958 -999 -999 -999 -999
2007-07-05 07:51:17 51°21.879 3°6.984 -999 -999 -999 -999
2007-07-05 07:51:23 51°21.887 3°7.015 -999 -999 -999 -999
2007-07-05 07:51:27 51°21.891 3°7.036 -999 -999 -999 -999
2007-07-05 07:51:32 51°21.895 3°7.061 -999 -999 -999 -999
2007-07-05 07:51:38 51°21.899 3°7.092 -999 -999 -999 -999
2007-07-05 07:51:43 51°21.902 3°7.121 -999 -999 -999 -999
2007-07-05 07:51:47 51°21.906 3°7.142 -999 -999 -999 -999
2007-07-05 07:51:52 51°21.911 3°7.166 -999 -999 -999 -999
2007-07-05 07:51:57 51°21.911 3°7.192 -999 -999 -999 -999
2007-07-05 07:52:03 51°21.913 3°7.227 -999 -999 -999 -999
2007-07-05 07:52:07 51°21.917 3°7.249 -999 -999 -999 -999
2007-07-05 07:52:12 51°21.92 3°7.275 -999 -999 -999 -999
2007-07-05 07:52:17 51°21.921 3°7.301 -999 -999 -999 -999
2007-07-05 07:52:22 51°21.923 3°7.327 -999 -999 -999 -999
2007-07-05 07:52:27 51°21.925 3°7.353 -999 -999 -999 -999
2007-07-05 07:52:32 51°21.928 3°7.38 -999 -999 -999 -999
2007-07-05 07:52:37 51°21.932 3°7.406 -999 -999 -999 -999
2007-07-05 07:52:42 51°21.933 3°7.431 -999 -999 -999 -999
2007-07-05 07:52:47 51°21.937 3°7.457 -999 -999 -999 -999
2007-07-05 07:52:52 51°21.938 3°7.483 -999 -999 -999 -999
2007-07-05 07:52:57 51°21.942 3°7.507 -999 -999 -999 -999
2007-07-05 07:53:03 51°21.943 3°7.539 -999 -999 -999 -999
2007-07-05 07:53:07 51°21.949 3°7.559 -999 -999 -999 -999
2007-07-05 07:53:12 51°21.951 3°7.585 -999 -999 -999 -999
2007-07-05 07:53:17 51°21.953 3°7.609 -999 -999 -999 -999
2007-07-05 07:53:22 51°21.956 3°7.635 -999 -999 -999 -999
2007-07-05 07:53:27 51°21.958 3°7.663 -999 -999 -999 -999
2007-07-05 07:53:32 51°21.964 3°7.689 -999 -999 -999 -999
2007-07-05 07:53:38 51°21.967 3°7.719 -999 -999 -999 -999
2007-07-05 07:53:43 51°21.971 3°7.745 -999 -999 -999 -999
2007-07-05 07:53:47 51°21.975 3°7.765 -999 -999 -999 -999
2007-07-05 07:53:52 51°21.977 3°7.791 -999 -999 -999 -999
2007-07-05 07:53:57 51°21.983 3°7.817 -999 -999 -999 -999
2007-07-05 07:54:03 51°21.987 3°7.847 -999 -999 -999 -999
2007-07-05 07:54:07 51°21.989 3°7.868 -999 -999 -999 -999
2007-07-05 07:54:12 51°21.993 3°7.895 -999 -999 -999 -999
2007-07-05 07:54:17 51°21.997 3°7.921 -999 -999 -999 -999
2007-07-05 07:54:22 51°22 3°7.947 -999 -999 -999 -999
2007-07-05 07:54:27 51°22.005 3°7.973 -999 -999 -999 -999
2007-07-05 07:54:32 51°22.008 3°7.999 -999 -999 -999 -999
2007-07-05 07:54:37 51°22.012 3°8.023 -999 -999 -999 -999
2007-07-05 07:54:42 51°22.014 3°8.049 -999 -999 -999 -999
2007-07-05 07:54:47 51°22.02 3°8.074 -999 -999 -999 -999
2007-07-05 07:54:52 51°22.021 3°8.102 -999 -999 -999 -999
2007-07-05 07:54:57 51°22.026 3°8.127 -999 -999 -999 -999
2007-07-05 07:55:02 51°22.029 3°8.151 -999 -999 -999 -999
2007-07-05 07:55:07 51°22.031 3°8.177 -999 -999 -999 -999
2007-07-05 07:55:12 51°22.033 3°8.205 -999 -999 -999 -999